SP4MAZ-13 Weather Reports


time (UTC)temp
C
wind
direction
speed
KPH
gust
KPH
rain 1hr
cm
rain 24hr
cm
rain mn
cm
humidity
%
barometer
mb
20260506171012 17 238 12.9 0.0 0.00 0.00 0.00 61 2147.4
20260506170511 18 238 12.9 0.0 0.00 0.00 0.00 59 2147.4
20260506170008 18 238 12.9 0.0 0.00 0.00 0.00 60 2147.4
20260506165506 18 238 12.9 0.0 0.00 0.00 0.00 60 2147.4
20260506165004 18 238 12.9 0.0 0.00 0.00 0.00 63 2147.4
20260506164500 18 238 12.9 0.0 0.00 0.00 0.00 65 2147.4
20260506163956 18 238 12.9 0.0 0.00 0.00 0.00 64 2147.4
20260506163453 18 238 12.9 0.0 0.00 0.00 0.00 64 2147.4
20260506162949 18 238 12.9 0.0 0.00 0.00 0.00 63 2147.4
20260506162447 18 238 12.9 0.0 0.00 0.00 0.00 61 2147.4
20260506161943 19 238 12.9 0.0 0.00 0.00 0.00 61 2147.4
20260506161440 20 238 12.9 0.0 0.00 0.00 0.00 56 2147.4
20260506160939 21 238 12.9 0.0 0.00 0.00 0.00 53 2147.4
20260506160435 21 238 12.9 0.0 0.00 0.00 0.00 51 2147.4
20260506155932 22 238 12.9 0.0 0.00 0.00 0.00 51 2147.4
20260506155431 22 238 12.9 0.0 0.00 0.00 0.00 50 2147.4
20260506154927 21 207 12.9 0.0 0.00 0.00 0.00 58 2147.4
20260506154425 20 207 12.9 0.0 0.00 0.00 0.00 58 2147.4
20260506153921 20 207 12.9 0.0 0.00 0.00 0.00 59 2147.4
20260506153417 20 207 12.9 0.0 0.00 0.00 0.00 58 2147.4
20260506152916 21 207 12.9 0.0 0.00 0.00 0.00 57 2147.4
20260506152413 20 207 12.9 0.0 0.00 0.00 0.00 60 2147.4
20260506151909 19 207 12.9 0.0 0.00 0.00 0.00 66 2147.4
20260506151405 19 207 12.9 0.0 0.00 0.00 0.00 67 2147.4
20260506150902 18 207 12.9 0.0 0.00 0.00 0.00 70 2147.4
20260506150358 18 207 12.9 0.0 0.00 0.00 0.00 73 2147.4
20260506145855 19 207 12.9 0.0 0.00 0.00 0.00 68 2147.4
20260506145352 20 207 12.9 0.0 0.00 0.00 0.00 62 2147.4
20260506144851 20 207 12.9 0.0 0.00 0.00 0.00 64 2147.4
20260506144348 19 207 12.9 0.0 0.00 0.00 0.00 66 2147.4
20260506143844 18 207 12.9 0.0 0.00 0.00 0.00 65 2147.4
20260506143341 18 207 12.9 0.0 0.00 0.00 0.00 65 2147.4
20260506142838 20 207 12.9 0.0 0.00 0.00 0.00 60 2147.4
20260506142337 19 207 12.9 0.0 0.00 0.00 0.00 58 2147.4
20260506141833 19 207 12.9 0.0 0.00 0.00 0.00 59 2147.4
20260506141330 20 207 12.9 0.0 0.00 0.00 0.00 59 2147.4
20260506140826 19 207 12.9 0.0 0.00 0.00 0.00 60 2147.4
20260506140323 18 207 12.9 0.0 0.00 0.00 0.00 67 2147.4
20260506135820 18 207 12.9 0.0 0.00 0.00 0.00 64 2147.4
20260506135318 19 207 12.9 0.0 0.00 0.00 0.00 63 2147.4
20260506134815 20 207 12.9 0.0 0.00 0.00 0.00 55 2147.4
20260506134311 19 207 12.9 0.0 0.00 0.00 0.00 61 2147.4
20260506133808 18 146 8.0 0.0 0.00 0.00 0.00 66 2147.4
20260506133305 18 146 8.0 0.0 0.00 0.00 0.00 64 2147.4
20260506132801 21 146 8.0 0.0 0.00 0.00 0.00 54 2147.4
20260506132259 21 146 8.0 0.0 0.00 0.00 0.00 53 2147.4
20260506131756 21 146 8.0 0.0 0.00 0.00 0.00 51 2147.4
20260506131253 23 146 8.0 0.0 0.00 0.00 0.00 46 2147.4
20260506130750 22 146 8.0 0.0 0.00 0.00 0.00 47 2147.4
20260506130246 20 146 8.0 0.0 0.00 0.00 0.00 56 2147.4
20260506125742 22 146 8.0 0.0 0.00 0.00 0.00 49 2147.4
20260506125241 20 146 8.0 0.0 0.00 0.00 0.00 58 2147.4
20260506124737 24 146 8.0 0.0 0.00 0.00 0.00 43 2147.4
20260506124233 23 146 8.0 0.0 0.00 0.00 0.00 46 2147.4
20260506123730 23 146 8.0 0.0 0.00 0.00 0.00 46 2147.4
20260506123228 21 146 8.0 0.0 0.00 0.00 0.00 50 2147.4
20260506122724 22 146 8.0 0.0 0.00 0.00 0.00 48 2147.4
20260506122222 21 146 8.0 0.0 0.00 0.00 0.00 51 2147.4
20260506121721 21 146 8.0 0.0 0.00 0.00 0.00 51 2147.4
20260506121218 20 146 8.0 0.0 0.00 0.00 0.00 53 2147.4
20260506120714 20 146 8.0 0.0 0.00 0.00 0.00 55 2147.4
20260506115707 18 146 8.0 0.0 0.00 0.00 0.00 61 2147.4
20260506115205 17 146 9.7 0.0 0.00 0.00 0.00 63 2147.4
20260506114659 17 120 1.6 0.0 0.00 0.00 0.00 67 2147.4
20260506114155 17 120 1.6 0.0 0.00 0.00 0.00 62 2147.4
20260506113651 17 120 1.6 0.0 0.00 0.00 0.00 63 2147.4
20260506113150 18 120 1.6 0.0 0.00 0.00 0.00 60 2147.4
20260506112646 18 120 1.6 0.0 0.00 0.00 0.00 56 2147.4
20260506112145 19 120 1.6 0.0 0.00 0.00 0.00 56 2147.4
20260506111643 19 120 1.6 0.0 0.00 0.00 0.00 56 2147.4
20260506111139 17 120 1.6 0.0 0.00 0.00 0.00 63 2147.4
20260506110635 17 120 1.6 0.0 0.00 0.00 0.00 61 2147.4
20260506110132 19 120 1.6 0.0 0.00 0.00 0.00 57 2147.4
20260506105628 20 120 1.6 0.0 0.00 0.00 0.00 55 2147.4
20260506105125 18 120 1.6 0.0 0.00 0.00 0.00 59 2147.4
20260506104623 17 120 1.6 0.0 0.00 0.00 0.00 63 2147.4
20260506104120 18 120 1.6 0.0 0.00 0.00 0.00 56 2147.4
20260506103618 18 120 1.6 0.0 0.00 0.00 0.00 58 2147.4
20260506103114 16 120 1.6 0.0 0.00 0.00 0.00 68 2147.4
20260506102612 15 120 1.6 0.0 0.00 0.00 0.00 78 2147.4
20260506102109 15 120 1.6 0.0 0.00 0.00 0.00 78 2147.4
20260506101606 15 120 1.6 0.0 0.00 0.00 0.00 77 2147.4
20260506101105 16 120 1.6 0.0 0.00 0.00 0.00 72 2147.4
20260506100601 15 120 1.6 0.0 0.00 0.00 0.00 73 2147.4
20260506100057 15 120 1.6 0.0 0.00 0.00 0.00 75 2147.4
20260506095556 16 120 1.6 0.0 0.00 0.00 0.00 69 2147.4
20260506095054 15 120 1.6 0.0 0.00 0.00 0.00 71 2147.4
20260506094550 16 120 1.6 0.0 0.00 0.00 0.00 69 2147.4
20260506094048 15 120 1.6 0.0 0.00 0.00 0.00 76 2147.4
20260506093042 15 120 1.6 0.0 0.00 0.00 0.00 75 2147.4
20260506092541 14 120 1.6 0.0 0.00 0.00 0.00 75 2147.4
20260506092038 15 120 1.6 0.0 0.00 0.00 0.00 74 2147.4
20260506091033 14 120 1.6 0.0 0.00 0.00 0.00 72 2147.4
20260506090531 13 120 1.6 0.0 0.00 0.00 0.00 79 2147.4
20260506090028 15 120 1.6 0.0 0.00 0.00 0.00 71 2147.4
20260506085526 16 120 1.6 0.0 0.00 0.00 0.00 66 2147.4
20260506085024 16 120 1.6 0.0 0.00 0.00 0.00 66 2147.4
20260506084520 14 120 1.6 0.0 0.00 0.00 0.00 73 2147.4
20260506084019 15 120 1.6 0.0 0.00 0.00 0.00 69 2147.4
20260506083516 15 120 1.6 0.0 0.00 0.00 0.00 68 2147.4
20260506083012 15 120 1.6 0.0 0.00 0.00 0.00 70 2147.4
20260506082509 15 120 1.6 0.0 0.00 0.00 0.00 68 2147.4
20260506082005 14 120 1.6 0.0 0.00 0.00 0.00 73 2147.4
20260506081504 15 120 1.6 0.0 0.00 0.00 0.00 69 2147.4
20260506081000 13 120 1.6 0.0 0.00 0.00 0.00 75 2147.4
20260506080457 13 120 1.6 0.0 0.00 0.00 0.00 82 2147.4
20260506073435 13 120 1.6 0.0 0.00 0.00 0.00 73 2147.4
20260506072933 13 120 1.6 0.0 0.00 0.00 0.00 73 2147.4
20260506072431 13 120 1.6 0.0 0.00 0.00 0.00 75 2147.4
20260506071928 13 120 1.6 0.0 0.00 0.00 0.00 73 2147.4
20260506071426 14 120 1.6 0.0 0.00 0.00 0.00 71 2147.4
20260506070922 13 120 1.6 0.0 0.00 0.00 0.00 76 2147.4
20260506070419 13 120 1.6 0.0 0.00 0.00 0.00 78 2147.4
20260506062354 13 120 1.6 0.0 0.00 0.00 0.00 70 2147.4
20260506061343 12 120 1.6 0.0 0.00 0.00 0.00 76 2147.4
20260506060840 12 120 1.6 0.0 0.00 0.00 0.00 80 2147.4
20260506060336 12 120 1.6 0.0 0.00 0.00 0.00 75 2147.4
20260506051310 11 120 1.6 0.0 0.00 0.00 0.00 92 2147.4
20260506050808 11 120 1.6 0.0 0.00 0.00 0.00 94 2147.4
20260506050305 11 120 1.6 0.0 0.00 0.00 0.00 93 2147.4
20260506044759 11 120 1.6 0.0 0.00 0.00 0.00 96 2147.4
20260506044257 11 120 1.6 0.0 0.00 0.00 0.00 97 2147.4
20260506043756 11 120 1.6 0.0 0.00 0.00 0.00 98 2147.4
20260506043253 10 120 1.6 0.0 0.00 0.00 0.00 99 2147.4
20260506042750 10 120 1.6 0.0 0.00 0.00 0.00 99 2147.4
20260506042248 10 120 1.6 0.0 0.00 0.00 0.00 99 2147.4
20260506041744 10 120 1.6 0.0 0.00 0.00 0.00 99 2147.4
20260506041242 10 120 1.6 0.0 0.00 0.00 0.00 99 2147.4
20260506040741 10 120 1.6 0.0 0.00 0.00 0.00 99 2147.4
20260506040239 10 120 1.6 0.0 0.00 0.00 0.00 99 2147.4
20260506035735 10 120 1.6 0.0 0.00 0.00 0.00 99 2147.4
20260506035232 10 120 1.6 0.0 0.00 0.00 0.00 99 2147.4
20260506034730 10 120 1.6 0.0 0.00 0.00 0.00 99 2147.4
20260506034226 9 120 1.6 0.0 0.00 0.00 0.00 99 2147.4
20260506033722 9 120 1.6 0.0 0.00 0.00 0.00 99 2147.4
20260506033219 9 120 1.6 0.0 0.00 0.00 0.00 99 2147.4
20260506032717 9 120 1.6 0.0 0.00 0.00 0.00 99 2147.4
20260506032214 9 120 1.6 0.0 0.00 0.00 0.00 99 2147.4
20260506031712 9 120 1.6 0.0 0.00 0.00 0.00 99 2147.4
20260506031211 9 120 1.6 0.0 0.00 0.00 0.00 99 2147.4
20260506030707 9 120 1.6 0.0 0.00 0.00 0.00 99 2147.4
20260506030204 9 120 1.6 0.0 0.00 0.00 0.00 99 2147.4
20260506025703 9 120 1.6 0.0 0.00 0.00 0.00 99 2147.4
20260506025159 9 120 1.6 0.0 0.00 0.00 0.00 99 2147.4
20260506024658 9 120 1.6 0.0 0.00 0.00 0.00 99 2147.4
20260506024156 9 120 1.6 0.0 0.00 0.00 0.00 99 2147.4
20260506023652 9 120 1.6 0.0 0.00 0.00 0.00 99 2147.4
20260506023149 9 120 1.6 0.0 0.00 0.00 0.00 99 2147.4
20260506022645 9 120 1.6 0.0 0.00 0.00 0.00 99 2147.4
20260506022143 9 120 1.6 0.0 0.00 0.00 0.00 99 2147.4
20260506021642 8 120 1.6 0.0 0.00 0.00 0.00 99 2147.4
20260506021139 8 120 1.6 0.0 0.00 0.00 0.00 99 2147.4
20260506020636 8 120 1.6 0.0 0.00 0.00 0.00 99 2147.4
20260506020133 8 120 1.6 0.0 0.00 0.00 0.00 99 2147.4
20260506015632 8 120 1.6 0.0 0.00 0.00 0.00 99 2147.4
20260506015128 8 120 1.6 0.0 0.00 0.00 0.00 99 2147.4
20260506014625 8 120 1.6 0.0 0.00 0.00 0.00 99 2147.4
20260506014123 8 120 1.6 0.0 0.00 0.00 0.00 99 2147.4
20260506013619 8 120 1.6 0.0 0.00 0.00 0.00 99 2147.4
20260506013116 8 120 1.6 0.0 0.00 0.00 0.00 99 2147.4
20260506012615 8 120 1.6 0.0 0.00 0.00 0.00 99 2147.4
20260506012112 8 120 1.6 0.0 0.00 0.00 0.00 99 2147.4
20260506011609 8 120 1.6 0.0 0.00 0.00 0.00 99 2147.4
20260506011105 8 120 1.6 0.0 0.00 0.00 0.00 99 2147.4
20260506010602 8 120 1.6 0.0 0.00 0.00 0.00 99 2147.4
20260506010058 9 120 1.6 0.0 0.00 0.00 0.00 99 2147.4
20260506005555 8 120 1.6 0.0 0.00 0.00 0.00 99 2147.4
20260506005052 8 120 1.6 0.0 0.00 0.00 0.00 99 2147.4
20260506004548 8 120 1.6 0.0 0.00 0.00 0.00 99 2147.4
20260506004044 8 120 1.6 0.0 0.00 0.00 0.00 99 2147.4
20260506003541 8 120 1.6 0.0 0.00 0.00 0.00 99 2147.4
20260506003037 8 120 1.6 0.0 0.00 0.00 0.00 99 2147.4
20260506002534 8 120 1.6 0.0 0.00 0.00 0.00 99 2147.4
20260506002030 8 120 1.6 0.0 0.00 0.00 0.00 99 2147.4
20260506001529 8 120 1.6 0.0 0.00 0.00 0.00 99 2147.4
20260506001025 8 120 1.6 0.0 0.00 0.00 0.00 99 2147.4
20260506000522 8 120 1.6 0.0 0.00 0.00 0.00 99 2147.4
20260506000018 8 120 1.6 0.0 0.00 0.00 0.00 99 2147.4
20260505235515 8 120 1.6 0.0 0.00 0.00 0.00 99 2147.4
20260505235011 8 120 1.6 0.0 0.00 0.00 0.00 99 2147.4
20260505234508 8 120 1.6 0.0 0.00 0.00 0.00 99 2147.4
20260505234007 8 120 1.6 0.0 0.00 0.00 0.00 99 2147.4
20260505233503 8 120 1.6 0.0 0.00 0.00 0.00 99 2147.4
20260505233001 8 120 1.6 0.0 0.00 0.00 0.00 96 2147.4
20260505232457 9 120 1.6 0.0 0.00 0.00 0.00 97 2147.4
20260505231954 9 120 1.6 0.0 0.00 0.00 0.00 94 2147.4
20260505231450 9 120 1.6 0.0 0.00 0.00 0.00 96 2147.4
20260505230946 9 120 1.6 0.0 0.00 0.00 0.00 94 2147.4
20260505230443 9 120 1.6 0.0 0.00 0.00 0.00 94 2147.4
20260505225940 9 120 1.6 0.0 0.00 0.00 0.00 90 2147.4
20260505225436 9 120 1.6 0.0 0.00 0.00 0.00 91 2147.4
20260505224933 9 120 1.6 0.0 0.00 0.00 0.00 93 2147.4
20260505224429 9 120 1.6 0.0 0.00 0.00 0.00 92 2147.4
20260505223926 9 120 1.6 0.0 0.00 0.00 0.00 92 2147.4
20260505223423 10 120 1.6 0.0 0.00 0.00 0.00 92 2147.4
20260505222919 10 120 1.6 0.0 0.00 0.00 0.00 92 2147.4
20260505222416 10 120 1.6 0.0 0.00 0.00 0.00 91 2147.4
20260505221912 10 120 1.6 0.0 0.00 0.00 0.00 88 2147.4
20260505221409 10 120 1.6 0.0 0.00 0.00 0.00 88 2147.4
20260505220906 10 120 1.6 0.0 0.00 0.00 0.00 83 2147.4
20260505220403 10 120 1.6 0.0 0.00 0.00 0.00 86 2147.4
20260505215859 10 120 1.6 0.0 0.00 0.00 0.00 87 2147.4
20260505215355 10 120 1.6 0.0 0.00 0.00 0.00 85 2147.4
20260505214853 10 120 1.6 0.0 0.00 0.00 0.00 84 2147.4
20260505214349 10 120 1.6 0.0 0.00 0.00 0.00 85 2147.4
20260505213846 10 120 1.6 0.0 0.00 0.00 0.00 85 2147.4
20260505213342 10 120 1.6 0.0 0.00 0.00 0.00 84 2147.4
20260505212839 10 120 1.6 0.0 0.00 0.00 0.00 85 2147.4
20260505212337 10 120 1.6 0.0 0.00 0.00 0.00 86 2147.4
20260505211834 10 120 1.6 0.0 0.00 0.00 0.00 84 2147.4
20260505211333 11 120 1.6 0.0 0.00 0.00 0.00 81 2147.4
20260505210830 11 120 1.6 0.0 0.00 0.00 0.00 82 2147.4
20260505210326 11 120 1.6 0.0 0.00 0.00 0.00 84 2147.4
20260505205822 11 120 1.6 0.0 0.00 0.00 0.00 83 2147.4
20260505205320 11 120 1.6 0.0 0.00 0.00 0.00 82 2147.4
20260505204815 11 120 1.6 0.0 0.00 0.00 0.00 85 2147.4
20260505204314 11 120 1.6 0.0 0.00 0.00 0.00 84 2147.4
20260505203811 11 120 1.6 0.0 0.00 0.00 0.00 82 2147.4
20260505203307 11 120 1.6 0.0 0.00 0.00 0.00 80 2147.4
20260505202804 11 120 1.6 0.0 0.00 0.00 0.00 83 2147.4
20260505202300 11 120 1.6 0.0 0.00 0.00 0.00 80 2147.4
20260505201757 11 120 1.6 0.0 0.00 0.00 0.00 80 2147.4
20260505201255 11 120 1.6 0.0 0.00 0.00 0.00 76 2147.4
20260505200752 11 120 1.6 0.0 0.00 0.00 0.00 77 2147.4
20260505200248 11 120 1.6 0.0 0.00 0.00 0.00 75 2147.4
20260505195747 11 120 1.6 0.0 0.00 0.00 0.00 72 2147.4
20260505195244 11 120 1.6 0.0 0.00 0.00 0.00 72 2147.4
20260505194742 11 120 1.6 0.0 0.00 0.00 0.00 71 2147.4
20260505194238 11 120 1.6 0.0 0.00 0.00 0.00 70 2147.4
20260505193735 11 120 1.6 0.0 0.00 0.00 0.00 69 2147.4
20260505193232 11 120 1.6 0.0 0.00 0.00 0.00 69 2147.4
20260505192728 11 120 1.6 0.0 0.00 0.00 0.00 69 2147.4
20260505192224 11 120 1.6 0.0 0.00 0.00 0.00 73 2147.4
20260505191720 11 120 1.6 0.0 0.00 0.00 0.00 71 2147.4
20260505191217 11 120 1.6 0.0 0.00 0.00 0.00 68 2147.4
20260505190713 11 120 1.6 0.0 0.00 0.00 0.00 68 2147.4
20260505190210 11 120 1.6 0.0 0.00 0.00 0.00 68 2147.4
20260505185706 11 120 1.6 0.0 0.00 0.00 0.00 66 2147.4
20260505185203 11 120 1.6 0.0 0.00 0.00 0.00 67 2147.4
20260505184702 11 120 1.6 0.0 0.00 0.00 0.00 67 2147.4
20260505184158 12 120 1.6 0.0 0.00 0.00 0.00 69 2147.4
20260505183655 12 120 1.6 0.0 0.00 0.00 0.00 68 2147.4
20260505183151 12 120 1.6 0.0 0.00 0.00 0.00 68 2147.4
20260505182144 12 120 1.6 0.0 0.00 0.00 0.00 70 2147.4
20260505181640 12 120 1.6 0.0 0.00 0.00 0.00 71 2147.4
20260505181139 12 120 1.6 0.0 0.00 0.00 0.00 74 2147.4
20260505180636 12 120 1.6 0.0 0.00 0.00 0.00 69 2147.4
20260505180133 13 120 1.6 0.0 0.00 0.00 0.00 68 2147.4
20260505175632 13 120 1.6 0.0 0.00 0.00 0.00 70 2147.4
20260505175130 13 120 1.6 0.0 0.00 0.00 0.00 74 2147.4
20260505174626 13 120 1.6 0.0 0.00 0.00 0.00 76 2147.4
20260505174125 14 120 1.6 0.0 0.00 0.00 0.00 83 2147.4
20260505173622 14 120 1.6 0.0 0.00 0.00 0.00 90 2147.4
20260505173120 14 120 1.6 0.0 0.00 0.00 0.00 89 2147.4
20260505172617 13 120 1.6 0.0 0.00 0.00 0.00 92 2147.4
20260505172114 14 120 1.6 0.0 0.00 0.00 0.00 89 2147.4
20260505171610 14 120 1.6 0.0 0.00 0.00 0.00 91 2147.4